Flag for China Weather past 2 weeks in Langfang, Hebei, China

Now
66 °F

Haze.


Feels Like: 66 °F
Forecast: 64 / 91 °F
Wind: 1 mph from North

Location: Beijing Airport

Current Time: Apr 26, 2015 at 7:51:47 AM

Latest Report: Apr 26, 2015 at 7:30 AM


Visibility: 3 mi

Pressure: 29.89 "Hg

Humidity: 68%

Dew point: 55 °F

Location of LangfangLocation

Historic Weather in Langfang — Graph

°F

Langfang temperature yesterday

Maximum temperature yesterday: 90 °F (at 2:00 PM)
Minimum temperature yesterday: 48 °F (at 3:30 AM)
Average temperature yesterday: 73 °F

Past Weeks' High & Low Weather Summary

 TemperatureHumidityPressure
High90 °F (Apr 25, 2:00 PM)94% (Apr 11, 10:30 PM)30.45 "Hg (Apr 11, 10:30 PM)
Low39 °F (Apr 14, 4:30 AM)6% (Apr 23, 4:30 PM)29.36 "Hg (Apr 15, 3:30 PM)
Average62 °F42%29.94 "Hg
* Reported Apr 11 7:00 AM — Apr 26 7:00 AM, Langfang, Weather by CustomWeather, © 2015

Note: Actual official high and low records may vary slightly from our data, if they occured in-between our weather recording intervals... More about our weather records

Advertising

Langfang weather history for previous 24 hours

 ConditionsComfort  
Time TempWeatherWind HumidityBarometerVisibility
7:00 AM
Sun, Apr 26
64 °FFog.1 mph78%29.89 "Hg3 mi
6:30 AM59 °FFog.No wind88%29.89 "Hg3 mi
6:00 AM57 °FFog.No wind88%29.86 "Hg3 mi
5:00 AM55 °FClear.1 mph88%29.86 "Hg5 mi
4:30 AM57 °FClear.1 mph88%29.86 "Hg10 mi
4:00 AM57 °FClear.1 mph82%29.83 "Hg10 mi
3:30 AM61 °FClear.1 mph77%29.83 "Hg10 mi
3:00 AM63 °FClear.1 mph73%29.83 "Hg10 mi
2:30 AM64 °FClear.3 mph68%29.83 "Hg10 mi
2:00 AM68 °FClear.3 mph60%29.83 "Hg10 mi
1:30 AM72 °FClear.6 mph53%29.83 "Hg10 mi
1:00 AM73 °FClear.10 mph50%29.83 "Hg10 mi
12:30 AM75 °FPassing clouds.8 mph47%29.83 "HgN/A
12:00 AM75 °FClear.8 mph47%29.86 "Hg10 mi
11:30 PM
Sat, Apr 25
77 °FPassing clouds.13 mph42%29.86 "HgN/A
11:00 PM79 °FClear.10 mph37%29.86 "Hg10 mi
10:30 PM79 °FClear.10 mph37%29.86 "Hg10 mi
10:00 PM79 °FClear.13 mph37%29.86 "Hg10 mi
9:30 PM81 °FClear.13 mph37%29.86 "Hg10 mi
9:00 PM81 °FClear.13 mph34%29.86 "Hg10 mi
8:30 PM81 °FClear.13 mph32%29.86 "Hg10 mi
8:00 PM82 °FClear.13 mph26%29.83 "Hg10 mi
7:30 PM82 °FClear.15 mph23%29.83 "Hg10 mi
7:00 PM84 °FSunny.13 mph20%29.83 "Hg10 mi
6:30 PM86 °FSunny.17 mph17%29.83 "Hg10 mi
6:00 PM86 °FSunny.13 mph18%29.83 "Hg10 mi
5:30 PM88 °FSunny.15 mph13%29.83 "Hg10 mi
5:00 PM88 °FPassing clouds.13 mph13%29.83 "HgN/A
4:30 PM90 °FSunny.15 mph12%29.83 "Hg10 mi
4:00 PM90 °FSunny.15 mph14%29.83 "Hg10 mi
3:30 PM90 °FPassing clouds.13 mph12%29.86 "HgN/A
3:00 PM90 °FPassing clouds.10 mph11%29.86 "HgN/A
2:30 PM90 °FPassing clouds.10 mph15%29.89 "HgN/A
2:00 PM90 °FPassing clouds.10 mph16%29.89 "HgN/A
1:30 PM88 °FPassing clouds.8 mph18%29.92 "HgN/A
1:00 PM86 °FPassing clouds.8 mph18%29.95 "HgN/A
12:30 PM86 °FPassing clouds.8 mph17%29.95 "HgN/A
12:00 PM84 °FSunny.3 mph16%29.98 "Hg10 mi
11:30 AM82 °FPassing clouds.6 mph20%29.98 "HgN/A
11:00 AM79 °FSunny.3 mph23%30.01 "Hg10 mi
10:30 AM79 °FSunny.1 mph21%30.01 "Hg10 mi
10:00 AM77 °FSunny.1 mph22%30.01 "Hg10 mi
9:30 AM75 °FPassing clouds.3 mph27%30.04 "HgN/A
9:00 AM72 °FPassing clouds.3 mph31%30.04 "HgN/A
8:30 AM70 °FPassing clouds.3 mph33%30.04 "HgN/A
7:30 AM64 °FPassing clouds.3 mph43%30.04 "HgN/A
7:00 AM59 °FPassing clouds.3 mph48%30.04 "HgN/A
Weather by CustomWeather, © 2015

See weather overviewHow to use our weather pages